Overview Statistics Trail Chart Weather Telemetry Raw packets
 

This is the latest recevied weather packets stored in our database for station/object W0AKY-13. If no packets are shown the sender has not sent any weather packets the latest 10 day(s).

<< 88 89 90 91 92 93 94 >>
Time Temp. Humidity Pressure Rain* Wind** Luminosity Snow
1787852680 27.78° C 56% 1022.8 hPa 0 mm - 630 W/m² -
1787852379 27.78° C 59% 1022.5 hPa 0 mm - 632 W/m² -
1787852079 27.78° C 56% 1022.9 hPa 0 mm - 616 W/m² -
1787851778 27.78° C 58% 1022.8 hPa 0 mm - 602 W/m² -
1787851473 27.22° C 59% 1022.9 hPa 0 mm - 596 W/m² -
1787851168 27.78° C 58% 1022.8 hPa 0 mm - 594 W/m² -
1787850864 27.78° C 56% 1022.6 hPa 0 mm - 588 W/m² -
1787850560 26.67° C 63% 1022.8 hPa 0 mm - 581 W/m² -
1787850255 26.67° C 61% 1022.7 hPa 0 mm - 578 W/m² -
1787849955 26.67° C 61% 1022.8 hPa 0 mm - 558 W/m² -
1787849655 26.67° C 62% 1023.2 hPa 0 mm - 549 W/m² -
1787849350 26.67° C 63% 1023 hPa 0 mm - 541 W/m² -
1787849049 26.11° C 62% 1022.9 hPa 0 mm - 532 W/m² -
1787848743 26.67° C 66% 1023 hPa 0 mm - 524 W/m² -
1787848438 26.67° C 63% 1023.1 hPa 0 mm - 522 W/m² -
1787848138 27.78° C 63% 1023 hPa 0 mm - 510 W/m² -
1787847838 26.67° C 63% 1022.8 hPa 0 mm - 500 W/m² -
1787847533 26.11° C 64% 1022.9 hPa 0 mm - 490 W/m² -
1787847228 26.11° C 66% 1022.9 hPa 0 mm - 479 W/m² -
1787846926 25.56° C 69% 1022.6 hPa 0 mm - 466 W/m² -
1787846624 25.56° C 70% 1022.7 hPa 0 mm - 455 W/m² -
1787846319 25.56° C 69% 1022.5 hPa 0 mm - 444 W/m² -
1787846016 25° C 74% 1022.7 hPa 0 mm - 432 W/m² -
1787845712 25.56° C 73% 1022.8 hPa 0 mm - 219 W/m² -
1787845411 25° C 73% 1022.7 hPa 0 mm - 408 W/m² -

* Rain latest hour (hover to see other rain measurements)
** Current wind speed in m/s (hover to see current wind gust speed)